Location: Newark
(40.7360°N, 74.1730°W)
Time: 15:05:59
(UTC-04:00)

ISS - All Passes

Search period start: 25 June 2017 00:00
Search period end: 05 July 2017 00:00
Orbit: 401 x 408 km, 51.6° (Epoch: 26 June)

Date Brightness Start Highest point End Pass type
(mag) Time Alt. Az. Time Alt. Az. Time Alt. Az.
25 Jun - 08:44:43 10° SSW 08:47:50 43° SE 08:50:59 10° ENE daylight
25 Jun - 10:21:35 10° W 10:24:26 27° NNW 10:27:18 10° NE daylight
25 Jun - 12:00:11 10° NNW 12:01:46 13° N 12:03:22 10° NNE daylight
25 Jun - 13:37:02 10° NNW 13:39:17 17° NNE 13:41:32 10° ENE daylight
25 Jun - 15:12:59 10° NW 15:16:16 66° NE 15:19:33 10° ESE daylight
25 Jun - 16:50:39 10° W 16:52:23 14° SW 16:54:07 10° SSW daylight
26 Jun - 07:53:12 10° S 07:55:48 22° SE 07:58:26 10° E daylight
26 Jun - 09:29:00 10° WSW 09:32:08 41° NNW 09:35:17 10° NE daylight
26 Jun - 11:07:23 10° NW 11:09:17 14° N 11:11:12 10° NNE daylight
26 Jun - 12:44:59 10° NNW 12:46:50 14° N 12:48:40 10° NE daylight
26 Jun - 14:20:55 10° NW 14:24:02 37° NNE 14:27:08 10° E daylight
26 Jun - 15:57:36 10° WNW 16:00:24 26° SW 16:03:11 10° SSE daylight
27 Jun - 07:02:37 10° SSE 07:03:51 12° SE 07:05:05 10° ESE daylight
27 Jun - 08:36:38 10° WSW 08:39:53 75° NW 08:43:11 10° NE daylight
27 Jun - 10:14:31 10° WNW 10:16:50 18° NNW 10:19:09 10° NNE daylight
27 Jun - 11:52:47 10° NNW 11:54:20 13° N 11:55:53 10° NNE daylight
27 Jun - 13:28:54 10° NW 13:31:41 25° NNE 13:34:30 10° E daylight
27 Jun - 15:05:08 10° WNW 15:08:20 50° SW 15:11:32 10° SE daylight
28 Jun - 07:44:32 10° SW 07:47:44 55° SE 07:50:58 10° ENE daylight
28 Jun - 09:21:42 10° WNW 09:24:25 23° NNW 09:27:09 10° NNE daylight
28 Jun - 11:00:17 10° NNW 11:01:48 13° N 11:03:20 10° NNE daylight
28 Jun - 12:36:53 10° NNW 12:39:17 18° NNE 12:41:41 10° ENE daylight
28 Jun - 14:12:53 10° NW 14:16:11 83° NE 14:19:28 10° SE daylight
28 Jun - 15:51:24 10° WSW 15:52:12 11° SW 15:52:59 10° SW daylight
29 Jun - 06:52:47 10° SSW 06:55:38 28° SE 06:58:30 10° ENE daylight
29 Jun - 08:29:01 10° W 08:32:03 34° NNW 08:35:06 10° NE daylight
29 Jun - 10:07:30 10° NW 10:09:16 14° N 10:11:02 10° NNE daylight
29 Jun - 11:44:50 10° NNW 11:46:49 15° NNE 11:48:47 10° NE daylight
29 Jun - 13:20:44 10° NW 13:23:56 45° NNE 13:27:07 10° ESE daylight
29 Jun - 14:57:42 10° W 15:00:13 20° SW 15:02:43 10° S daylight
30 Jun - 06:01:41 10° SSE 06:03:36 15° SE 06:05:32 10° E daylight
30 Jun - 07:36:31 10° WSW 07:39:45 59° NNW 07:43:00 10° NE daylight
30 Jun - 09:14:36 10° NW 09:16:46 16° NNW 09:18:56 10° NNE daylight
30 Jun - 10:52:39 10° NNW 10:54:17 13° N 10:55:54 10° NE daylight
30 Jun - 12:28:40 10° NW 12:31:36 28° NNE 12:34:31 10° E daylight
30 Jun - 14:05:02 10° WNW 14:08:08 39° SW 14:11:14 10° SSE daylight
01 Jul - 06:44:16 10° SW 06:47:31 72° SE 06:50:48 10° ENE daylight
01 Jul - 08:21:42 10° WNW 08:24:17 21° NNW 08:26:52 10° NNE daylight
01 Jul - 10:00:14 10° NNW 10:01:43 12° N 10:03:13 10° NNE daylight
01 Jul - 11:36:37 10° NNW 11:39:11 20° NNE 11:41:42 10° ENE daylight
01 Jul - 13:12:40 10° NW 13:15:58 79° SW 13:19:15 10° SE daylight
02 Jul - 05:52:20 10° SSW 05:55:21 35° SE 05:58:23 10° ENE daylight
02 Jul - 07:28:56 10° W 07:31:51 30° NNW 07:34:48 10° NE daylight
02 Jul - 09:07:30 10° NW 09:09:09 13° N 09:10:47 10° NNE daylight
02 Jul - 10:44:33 10° NNW 10:46:40 16° NNE 10:48:47 10° NE daylight
02 Jul - 12:20:27 10° NW 12:23:42 55° NNE 12:26:57 10° ESE daylight
02 Jul - 13:57:44 10° W 13:59:53 16° SW 14:02:02 10° S daylight
03 Jul - 05:00:54 10° S 05:03:16 19° SE 05:05:37 10° E daylight
03 Jul - 06:36:20 10° WSW 06:39:30 48° NNW 06:42:42 10° NE daylight
03 Jul - 08:14:35 10° NW 08:16:35 15° NNW 08:18:36 10° NNE daylight
03 Jul - 09:52:24 10° NNW 09:54:07 13° N 09:55:50 10° NE daylight
03 Jul - 11:28:20 10° NW 11:31:21 33° NNE 11:34:23 10° E daylight
03 Jul - 13:04:51 10° WNW 13:07:48 31° SW 13:10:45 10° SSE daylight
04 Jul - 05:43:56 10° SW 05:47:12 89° NNW 05:50:29 10° NE daylight
04 Jul - 07:21:38 10° WNW 07:24:03 19° NNW 07:26:30 10° NNE daylight
04 Jul - 09:00:02 10° NNW 09:01:31 12° N 09:03:01 10° NNE daylight
04 Jul - 10:36:15 10° NNW 10:38:56 22° NNE 10:41:36 10° ENE daylight
04 Jul - 12:12:23 10° WNW 12:15:38 61° SW 12:18:52 10° SE daylight
